Flag for USA

Past Weather in Clifton, Colorado, USA — Yesterday and Last 2 Weeks

Now
79 °F

Clear.


Feels Like: 78 °F
Forecast: 85 / 57 °F
Wind: 7 mph from South

Location: Walker Field
Current Time: Sep 19, 2020 at 8:39:19 pm
Latest Report: Sep 19, 2020 at 7:53 pm
Visibility: 10 mi
Pressure29.75 "Hg(25.24 "Hg at 1440m altitude)
Humidity: 18%
Dew Point: 32 °F
Location of CliftonLocation

Past Weather in Clifton — Graph

°F

Clifton Temperature Yesterday

Maximum temperature yesterday: 85 °F (at 3:53 pm)
Minimum temperature yesterday: 55 °F (at 6:53 am)
Average temperature yesterday: 69 °F

High & Low Weather Summary for the Past Weeks

 TemperatureHumidityPressure
High99 °F (Sep 6, 4:35 pm)93% (Sep 8, 10:18 am)30.30 "Hg (Sep 8, 10:18 am)
Low39 °F (Sep 8, 5:53 pm)5% (Sep 5, 4:53 pm)29.26 "Hg (Sep 8, 3:53 am)
Average64 °F39%30.01 "Hg
* Reported Sep 4 6:53 pm — Sep 19 6:53 pm, Clifton. Weather by CustomWeather, © 2020

Note: Actual official high and low records may vary slightly from our data, if they occured in-between our weather recording intervals... More about our weather records

Clifton Weather History for the Previous 24 Hours

Scroll right to see more
 ConditionsComfort  
Time TempWeatherWind HumidityBarometerVisibility
6:53 pm
Sat, Sep 19
81 °FSunny.7 mph16%29.75 "Hg10 mi
5:53 pm84 °FSunny.8 mph15%29.74 "Hg10 mi
4:53 pm86 °FSunny.13 mph14%29.74 "Hg10 mi
3:53 pm88 °FSunny.14 mph13%29.75 "Hg10 mi
2:53 pm85 °FPartly sunny.8 mph15%29.78 "Hg10 mi
1:53 pm86 °FSunny.14 mph13%29.80 "Hg10 mi
12:53 pm82 °FSunny.6 mph15%29.85 "Hg10 mi
11:53 am82 °FSunny.12 mph16%29.87 "Hg10 mi
10:53 am80 °FSunny.14 mph17%29.89 "Hg10 mi
9:53 am71 °FSunny.9 mph23%29.92 "Hg10 mi
8:53 am69 °FSunny.9 mph24%29.91 "Hg10 mi
7:53 am66 °FSunny.14 mph27%29.91 "Hg10 mi
6:53 am66 °FClear.8 mph26%29.88 "Hg10 mi
5:53 am66 °FClear.13 mph25%29.86 "Hg10 mi
4:53 am69 °FClear.15 mph22%29.85 "Hg10 mi
3:53 am67 °FClear.13 mph23%29.85 "Hg10 mi
2:53 am66 °FClear.17 mph25%29.87 "Hg10 mi
1:53 am65 °FClear.14 mph26%29.89 "Hg10 mi
12:53 am68 °FClear.15 mph24%29.89 "Hg10 mi
11:53 pm
Fri, Sep 18
68 °FClear.8 mph24%29.90 "Hg10 mi
10:53 pm69 °FClear.10 mph24%29.91 "Hg10 mi
9:53 pm69 °FClear.8 mph27%29.92 "Hg10 mi
8:53 pm70 °FClear.5 mph28%29.93 "Hg10 mi
Weather by CustomWeather, © 2020

See weather overview